Location: Newport
(44.6370°N, 124.0520°W)
Time: 14:27:51
(UTC-07:00)

Tiangong 1 - Pass Details

Date: 09 October 2017
Orbit: 293 x 320 km, 42.8° (Epoch: 20 October)

Event Time Altitude Azimuth Distance (km) Brightness Sun altitude
Rises 20:44:45 0° 269° (W) 2,033 6.1 -22.6°
Reaches altitude 10° 20:46:45 10° 265° (W) 1,198 4.5 -23.0°
Enters shadow 20:47:45 20° 258° (WSW) 805 3.4 -23.1°
